N1IJV-10 Weather Reports


time (UTC)temp
C
wind
direction
speed
KPH
gust
KPH
rain 1hr
cm
rain 24hr
cm
rain mn
cm
humidity
%
barometer
mb
20260507100053 0 97 0.0 0.0 0.00 0.00 0.00 94 1014.5
20260507095550 0 97 0.0 0.0 0.00 0.00 0.00 94 1014.7
20260507095047 0 97 0.0 0.0 0.00 0.00 0.00 94 1014.4
20260507094543 0 99 0.0 0.0 0.00 0.00 0.00 94 1014.9
20260507094040 0 100 0.0 0.0 0.00 0.00 0.00 94 1014.8
20260507093537 0 102 0.0 0.0 0.00 0.00 0.00 94 1014.8
20260507093036 0 99 0.0 0.0 0.00 0.00 0.00 94 1014.7
20260507092532 0 99 0.0 0.0 0.00 0.00 0.00 94 1014.7
20260507092029 0 99 0.0 0.0 0.00 0.00 0.00 94 1014.8
20260507091526 0 102 0.0 0.0 0.00 0.00 0.00 94 1014.6
20260507091022 0 102 0.0 0.0 0.00 0.00 0.00 94 1014.6
20260507090517 0 100 0.0 0.0 0.00 0.00 0.00 94 1014.8
20260507090015 0 98 0.0 0.0 0.00 0.00 0.00 94 1014.8
20260507085512 0 101 0.0 0.0 0.00 0.00 0.00 94 1014.9
20260507085008 0 101 0.0 0.0 0.00 0.00 0.00 94 1014.8
20260507084505 0 100 0.0 0.0 0.00 0.00 0.00 94 1014.9
20260507084002 0 99 0.0 0.0 0.00 0.00 0.00 94 1014.6
20260507083458 0 99 0.0 0.0 0.00 0.00 0.00 94 1014.7
20260507082955 0 99 0.0 0.0 0.00 0.00 0.00 94 1014.6
20260507082451 0 97 0.0 0.0 0.00 0.00 0.00 94 1014.6
20260507081948 0 97 0.0 0.0 0.00 0.00 0.00 94 1014.7
20260507081444 0 98 0.0 0.0 0.00 0.00 0.00 94 1014.6
20260507080941 0 97 0.0 0.0 0.00 0.00 0.00 94 1014.6
20260507080437 0 95 0.0 0.0 0.00 0.00 0.00 94 1014.7
20260507075932 0 95 0.0 0.0 0.00 0.00 0.00 94 1014.7
20260507075429 0 95 0.0 0.0 0.00 0.00 0.00 94 1014.7
20260507074926 0 97 0.0 0.0 0.00 0.00 0.00 93 1014.8
20260507074422 0 97 0.0 0.0 0.00 0.00 0.00 93 1014.8
20260507073920 0 98 0.0 0.0 0.00 0.00 0.00 93 1014.7
20260507073416 0 98 0.0 0.0 0.00 0.00 0.00 94 1014.7
20260507072913 0 97 0.0 0.0 0.00 0.00 0.00 94 1015.0
20260507072411 0 97 0.0 0.0 0.00 0.00 0.00 94 1014.8
20260507071908 0 97 0.0 0.0 0.00 0.00 0.00 93 1014.8
20260507071405 0 97 0.0 0.0 0.00 0.00 0.00 93 1014.9
20260507070901 0 97 0.0 0.0 0.00 0.00 0.00 93 1014.9
20260507070359 1 98 0.0 0.0 0.00 0.00 0.00 93 1015.0
20260507065856 1 100 0.0 0.0 0.00 0.00 0.00 93 1015.1
20260507065352 1 101 0.0 0.0 0.00 0.00 0.00 93 1015.4
20260507064849 1 99 0.0 0.0 0.00 0.00 0.00 92 1015.2
20260507064348 1 99 0.0 0.0 0.00 0.00 0.00 92 1015.0
20260507063845 1 99 0.0 0.0 0.00 0.00 0.00 91 1014.9
20260507063342 1 99 0.0 0.0 0.00 0.00 0.00 91 1015.2
20260507062839 1 98 0.0 0.0 0.00 0.00 0.00 91 1014.8
20260507062336 1 97 0.0 0.0 0.00 0.00 0.00 90 1015.1
20260507061834 1 98 0.0 0.0 0.00 0.00 0.00 90 1015.2
20260507061331 1 98 0.0 0.0 0.00 0.00 0.00 89 1015.3
20260507060830 1 98 0.0 0.0 0.00 0.00 0.00 89 1015.2
20260507060326 1 98 0.0 0.0 0.00 0.00 0.00 89 1015.2
20260507055823 1 97 0.0 0.0 0.00 0.00 0.00 88 1015.1
20260507055318 1 97 0.0 0.0 0.00 0.00 0.00 87 1015.2
20260507054815 1 98 0.0 0.0 0.00 0.00 0.00 86 1015.3
20260507054311 1 100 0.0 0.0 0.00 0.00 0.00 87 1015.5
20260507053808 1 100 0.0 0.0 0.00 0.00 0.00 86 1015.2
20260507053306 1 99 0.0 0.0 0.00 0.00 0.00 85 1015.1
20260507052805 1 99 0.0 0.0 0.00 0.00 0.00 85 1015.2
20260507052301 1 100 0.0 0.0 0.00 0.00 0.00 85 1015.1
20260507051759 2 100 0.0 0.0 0.00 0.00 0.00 85 1015.1
20260507051256 2 100 0.0 0.0 0.00 0.00 0.00 85 1015.0
20260507050753 2 102 0.0 0.0 0.00 0.00 0.00 85 1015.3
20260507050249 2 102 0.0 0.0 0.00 0.00 0.00 85 1015.4
20260507045746 2 99 0.0 0.0 0.00 0.00 0.00 85 1015.2
20260507045242 2 97 0.0 0.0 0.00 0.00 0.00 85 1015.1
20260507044740 2 97 0.0 0.0 0.00 0.00 0.00 84 1015.2
20260507044236 2 98 0.0 0.0 0.00 0.00 0.00 83 1015.1
20260507043732 2 97 0.0 0.0 0.00 0.00 0.00 84 1015.2
20260507043229 2 97 0.0 0.0 0.00 0.00 0.00 83 1015.1
20260507042725 2 97 0.0 0.0 0.00 0.00 0.00 80 1014.9
20260507042220 2 99 0.0 0.0 0.00 0.00 0.00 79 1015.1
20260507041718 2 99 0.0 0.0 0.00 0.00 0.00 78 1015.1
20260507041215 2 99 0.0 0.0 0.00 0.00 0.00 77 1015.3
20260507040712 3 99 0.0 0.0 0.00 0.00 0.00 75 1015.0
20260507040207 3 99 0.0 0.0 0.00 0.00 0.00 74 1015.3
20260507035704 3 99 0.0 0.0 0.00 0.00 0.00 73 1015.2
20260507035159 3 101 0.0 0.0 0.00 0.00 0.00 71 1015.2
20260507034656 3 100 0.0 0.0 0.00 0.00 0.00 71 1015.1
20260507034154 3 100 0.0 0.0 0.00 0.00 0.00 71 1015.1
20260507033652 4 100 0.0 0.0 0.00 0.00 0.00 70 1014.9
20260507033149 4 99 0.0 0.0 0.00 0.00 0.00 69 1015.2
20260507032647 4 99 0.0 0.0 0.00 0.00 0.00 70 1015.3
20260507032142 4 96 0.0 0.0 0.00 0.00 0.00 69 1015.3
20260507031639 4 99 0.0 0.0 0.00 0.00 0.00 68 1015.3
20260507031136 4 99 0.0 0.0 0.00 0.00 0.00 68 1015.2
20260507030633 5 99 0.0 0.0 0.00 0.00 0.00 67 1015.2
20260507030131 5 99 0.0 0.0 0.00 0.00 0.00 66 1015.2
20260507025627 5 99 0.0 0.0 0.00 0.00 0.00 65 1015.0
20260507025124 5 99 0.0 0.0 0.00 0.00 0.00 65 1015.2
20260507024622 5 99 0.0 0.0 0.00 0.00 0.00 65 1014.9
20260507024119 5 105 0.0 0.0 0.00 0.00 0.00 65 1015.1
20260507023615 5 105 0.0 0.0 0.00 0.00 0.00 64 1014.9
20260507023112 5 99 0.0 0.0 0.00 0.00 0.00 64 1014.9
20260507022609 5 111 0.0 0.0 0.00 0.00 0.00 65 1014.9
20260507022105 5 95 0.0 0.0 0.00 0.00 0.00 64 1015.0
20260507021601 5 95 0.0 0.0 0.00 0.00 0.00 64 1014.6
20260507021057 6 93 0.0 0.0 0.00 0.00 0.00 64 1014.7
20260507020556 6 89 0.0 0.0 0.00 0.00 0.00 64 1014.6
20260507020051 6 98 0.0 0.0 0.00 0.00 0.00 62 1014.4
20260507015550 7 90 0.0 0.0 0.00 0.00 0.00 60 1014.6
20260507015047 7 84 0.0 1.6 0.00 0.00 0.00 59 1014.4
20260507014543 7 70 0.0 1.6 0.00 0.00 0.00 57 1014.3
20260507014039 7 66 1.6 1.6 0.00 0.00 0.00 55 1014.4
20260507013536 7 84 1.6 1.6 0.00 0.00 0.00 55 1014.4
20260507013034 8 108 0.0 3.2 0.00 0.00 0.00 53 1014.4
20260507012531 8 50 3.2 3.2 0.00 0.00 0.00 55 1014.3
20260507012026 8 69 3.2 4.8 0.00 0.00 0.00 53 1014.1
20260507011524 8 338 4.8 8.0 0.00 0.00 0.00 52 1014.4
20260507011020 8 154 1.6 4.8 0.00 0.00 0.00 53 1014.6
20260507010515 8 115 3.2 4.8 0.00 0.00 0.00 53 1014.4
20260507010012 8 69 3.2 4.8 0.00 0.00 0.00 52 1014.3
20260507005509 8 242 4.8 9.7 0.00 0.00 0.00 52 1014.1
20260507005005 8 63 4.8 8.0 0.00 0.00 0.00 51 1014.3
20260507004502 8 296 1.6 3.2 0.00 0.00 0.00 52 1014.2
20260507004000 9 112 1.6 3.2 0.00 0.00 0.00 51 1014.1
20260507003455 9 359 4.8 9.7 0.00 0.00 0.00 48 1014.1
20260507002950 9 258 6.4 8.0 0.00 0.00 0.00 50 1014.1
20260507002447 10 334 8.0 11.3 0.00 0.00 0.00 47 1014.0
20260507001944 10 314 4.8 9.7 0.00 0.00 0.00 48 1014.2
20260507001440 10 81 4.8 16.1 0.00 0.00 0.00 48 1013.9
20260507000938 10 0 6.4 11.3 0.00 0.00 0.00 48 1013.9
20260507000435 10 11 6.4 11.3 0.00 0.00 0.00 48 1013.8
20260506235929 10 7 4.8 12.9 0.00 0.00 0.00 49 1013.9
20260506235427 10 337 6.4 9.7 0.00 0.00 0.00 49 1013.8
20260506234921 10 262 4.8 9.7 0.00 0.00 0.00 48 1013.8
20260506234420 10 273 6.4 9.7 0.00 0.00 0.00 48 1013.8
20260506233917 11 41 4.8 16.1 0.00 0.00 0.00 47 1013.7
20260506233414 11 18 6.4 12.9 0.00 0.00 0.00 51 1013.5
20260506232910 11 270 4.8 8.0 0.00 0.00 0.00 49 1013.6
20260506232406 11 288 4.8 9.7 0.00 0.00 0.00 48 1013.3
20260506231902 11 339 3.2 3.2 0.00 0.00 0.00 49 1013.5
20260506231400 11 189 4.8 8.0 0.00 0.00 0.00 48 1013.5
20260506230857 11 261 4.8 11.3 0.00 0.00 0.00 48 1013.5
20260506230354 11 275 6.4 9.7 0.00 0.00 0.00 47 1013.6
20260506225850 11 264 6.4 8.0 0.00 0.00 0.00 47 1013.2
20260506225348 11 78 3.2 11.3 0.00 0.00 0.00 48 1013.1
20260506224844 11 63 4.8 16.1 0.00 0.00 0.00 46 1013.1
20260506224342 11 273 3.2 4.8 0.00 0.00 0.00 50 1013.5
20260506223838 11 269 11.3 12.9 0.00 0.00 0.00 47 1013.3
20260506223333 11 52 4.8 4.8 0.00 0.00 0.00 49 1013.0
20260506222830 11 59 1.6 11.3 0.00 0.00 0.00 48 1012.9
20260506222326 11 359 8.0 11.3 0.00 0.00 0.00 46 1013.1
20260506221819 11 299 8.0 9.7 0.00 0.00 0.00 47 1013.1
20260506221316 12 7 8.0 12.9 0.00 0.00 0.00 48 1013.1
20260506220813 12 170 1.6 12.9 0.00 0.00 0.00 46 1013.3
20260506220308 12 352 4.8 8.0 0.00 0.00 0.00 44 1012.7
20260506215805 12 11 8.0 20.9 0.00 0.00 0.00 45 1012.9
20260506215301 12 342 3.2 11.3 0.00 0.00 0.00 45 1012.9
20260506214757 12 284 6.4 9.7 0.00 0.00 0.00 46 1013.0
20260506214254 13 277 6.4 9.7 0.00 0.00 0.00 44 1013.0
20260506213752 13 355 9.7 12.9 0.00 0.00 0.00 44 1012.8
20260506213249 13 356 6.4 9.7 0.00 0.00 0.00 45 1012.8
20260506212746 13 268 4.8 8.0 0.00 0.00 0.00 46 1012.8
20260506212242 13 335 4.8 9.7 0.00 0.00 0.00 43 1012.7
20260506211737 13 276 6.4 9.7 0.00 0.00 0.00 44 1012.9
20260506211234 13 315 9.7 11.3 0.00 0.00 0.00 46 1012.6
20260506210731 12 357 3.2 8.0 0.00 0.00 0.00 49 1012.8
20260506210228 13 244 4.8 12.9 0.00 0.00 0.00 46 1012.7
20260506205725 14 91 3.2 9.7 0.00 0.00 0.00 45 1012.7
20260506205220 15 266 1.6 12.9 0.00 0.00 0.00 46 1012.6
20260506204718 15 145 11.3 14.5 0.00 0.00 0.00 40 1012.9
20260506204215 14 329 6.4 9.7 0.00 0.00 0.00 42 1012.7
20260506203713 13 269 6.4 9.7 0.00 0.00 0.00 42 1012.8
20260506203210 13 308 4.8 9.7 0.00 0.00 0.00 46 1012.8
20260506202707 14 271 3.2 8.0 0.00 0.00 0.00 46 1012.8
20260506202203 14 107 8.0 12.9 0.00 0.00 0.00 40 1013.0
20260506201701 13 123 4.8 8.0 0.00 0.00 0.00 39 1012.7
20260506201156 13 205 6.4 14.5 0.00 0.00 0.00 38 1013.0
20260506200654 13 163 1.6 3.2 0.00 0.00 0.00 44 1013.0
20260506200150 14 6 1.6 4.8 0.00 0.00 0.00 41 1013.1
20260506195647 14 287 9.7 11.3 0.00 0.00 0.00 40 1013.3
20260506195143 14 104 3.2 4.8 0.00 0.00 0.00 41 1013.2
20260506194641 13 277 6.4 11.3 0.00 0.00 0.00 44 1013.2
20260506194137 15 274 4.8 11.3 0.00 0.00 0.00 38 1013.2
20260506193635 14 142 3.2 8.0 0.00 0.00 0.00 44 1013.3
20260506193132 14 50 3.2 17.7 0.00 0.00 0.00 38 1013.2
20260506192628 14 358 4.8 8.0 0.00 0.00 0.00 41 1013.1
20260506192124 13 307 4.8 9.7 0.00 0.00 0.00 41 1013.3
20260506191621 14 260 4.8 11.3 0.00 0.00 0.00 45 1013.1
20260506191117 13 134 3.2 9.7 0.00 0.00 0.00 40 1013.1
20260506190615 13 346 6.4 9.7 0.00 0.00 0.00 45 1013.3
20260506190112 13 251 3.2 8.0 0.00 0.00 0.00 43 1013.1
20260506185609 12 120 1.6 8.0 0.00 0.00 0.00 44 1013.0
20260506185105 12 73 3.2 9.7 0.00 0.00 0.00 44 1013.1
20260506184602 13 92 3.2 8.0 0.00 0.00 0.00 42 1013.4
20260506184100 13 181 1.6 4.8 0.00 0.00 0.00 46 1013.3
20260506183556 12 46 3.2 4.8 0.00 0.00 0.00 44 1013.2
20260506183052 12 25 3.2 4.8 0.00 0.00 0.00 43 1013.3
20260506182550 11 298 4.8 9.7 0.00 0.00 0.00 45 1013.1
20260506182047 12 9 6.4 8.0 0.00 0.00 0.00 45 1013.4
20260506181545 12 348 4.8 9.7 0.00 0.00 0.00 44 1013.3
20260506181041 12 288 4.8 4.8 0.00 0.00 0.00 45 1013.1
20260506180538 11 75 1.6 3.2 0.00 0.00 0.00 43 1013.0
20260506180035 12 172 4.8 8.0 0.00 0.00 0.00 44 1013.1
20260506175531 12 137 1.6 9.7 0.00 0.00 0.00 48 1013.4
20260506175028 12 302 3.2 4.8 0.00 0.00 0.00 44 1013.3
20260506174527 12 358 4.8 4.8 0.00 0.00 0.00 46 1013.4
20260506174022 12 247 1.6 3.2 0.00 0.00 0.00 46 1013.4
20260506173520 11 268 3.2 4.8 0.00 0.00 0.00 46 1013.5
20260506173017 12 285 3.2 4.8 0.00 0.00 0.00 50 1013.6
20260506172514 12 314 3.2 8.0 0.00 0.00 0.00 46 1013.5
20260506172010 12 356 6.4 9.7 0.00 0.00 0.00 43 1013.5
20260506171508 12 65 4.8 9.7 0.00 0.00 0.00 45 1013.7
20260506171005 12 119 1.6 3.2 0.00 0.00 0.00 43 1013.4
20260506170501 12 33 3.2 4.8 0.00 0.00 0.00 45 1013.5
20260506165954 12 323 4.8 9.7 0.00 0.00 0.00 46 1013.7
20260506165452 12 7 3.2 4.8 0.00 0.00 0.00 44 1013.7
20260506164942 13 271 8.0 9.7 0.00 0.00 0.00 42 1013.7
20260506164439 12 330 3.2 11.3 0.00 0.00 0.00 45 1013.6
20260506163937 11 78 4.8 4.8 0.00 0.00 0.00 47 1013.4
20260506163432 11 293 6.4 8.0 0.00 0.00 0.00 46 1013.4
20260506162927 12 350 3.2 4.8 0.00 0.00 0.00 46 1013.5
20260506162424 11 268 4.8 8.0 0.00 0.00 0.00 45 1013.5
20260506161916 12 52 3.2 9.7 0.00 0.00 0.00 45 1013.6
20260506161414 12 132 3.2 9.7 0.00 0.00 0.00 50 1013.4
20260506160906 12 269 4.8 9.7 0.00 0.00 0.00 44 1013.5
20260506160402 12 108 1.6 4.8 0.00 0.00 0.00 51 1013.4
20260506155900 11 325 6.4 8.0 0.00 0.00 0.00 46 1013.5
20260506155356 12 266 4.8 11.3 0.00 0.00 0.00 48 1013.5
20260506153514 12 205 4.8 8.0 0.00 0.00 0.00 43 1013.4
20260506153011 11 39 1.6 8.0 0.00 0.00 0.00 49 1013.7
20260506152508 11 168 1.6 4.8 0.00 0.00 0.00 49 1013.6
20260506152006 11 95 3.2 8.0 0.00 0.00 0.00 47 1013.7
20260506151503 11 104 3.2 4.8 0.00 0.00 0.00 46 1013.8
20260506151001 11 155 3.2 4.8 0.00 0.00 0.00 46 1013.6
20260506150457 11 268 4.8 4.8 0.00 0.00 0.00 47 1013.6
20260506145954 11 97 1.6 4.8 0.00 0.00 0.00 46 1013.6
20260506145450 11 42 3.2 3.2 0.00 0.00 0.00 47 1013.7
20260506144948 11 66 1.6 4.8 0.00 0.00 0.00 46 1013.8
20260506144444 11 52 3.2 3.2 0.00 0.00 0.00 47 1013.6
20260506143942 11 61 3.2 4.8 0.00 0.00 0.00 49 1013.6
20260506143439 11 71 1.6 4.8 0.00 0.00 0.00 48 1013.8
20260506142938 11 22 1.6 1.6 0.00 0.00 0.00 49 1013.7
20260506142435 11 357 4.8 9.7 0.00 0.00 0.00 47 1013.8
20260506141933 11 160 3.2 9.7 0.00 0.00 0.00 46 1013.8
20260506141430 11 178 3.2 4.8 0.00 0.00 0.00 48 1013.5
20260506140929 11 100 1.6 8.0 0.00 0.00 0.00 46 1013.7
20260506140426 11 103 0.0 3.2 0.00 0.00 0.00 45 1013.7
20260506135922 10 150 1.6 3.2 0.00 0.00 0.00 49 1013.7
20260506135420 10 160 1.6 3.2 0.00 0.00 0.00 54 1013.6
20260506134915 10 152 1.6 3.2 0.00 0.00 0.00 53 1013.3
20260506134412 10 142 1.6 3.2 0.00 0.00 0.00 54 1013.3
20260506133909 10 114 1.6 3.2 0.00 0.00 0.00 57 1013.2
20260506133406 9 67 1.6 3.2 0.00 0.00 0.00 59 1013.3
20260506132902 8 109 0.0 1.6 0.00 0.00 0.00 62 1013.1
20260506132359 8 91 0.0 1.6 0.00 0.00 0.00 65 1013.1
20260506131858 8 106 0.0 1.6 0.00 0.00 0.00 65 1013.0
20260506131353 8 116 0.0 1.6 0.00 0.00 0.00 65 1013.1
20260506130851 8 122 0.0 1.6 0.00 0.00 0.00 70 1012.9
20260506130347 7 85 0.0 1.6 0.00 0.00 0.00 75 1013.0
20260506125845 7 123 0.0 0.0 0.00 0.00 0.00 75 1012.9
20260506125343 7 94 0.0 0.0 0.00 0.00 0.00 77 1012.8
20260506124841 7 127 0.0 0.0 0.00 0.00 0.00 75 1012.8
20260506124338 7 89 0.0 0.0 0.00 0.00 0.00 77 1012.8
20260506123836 7 88 0.0 0.0 0.00 0.00 0.00 78 1012.6
20260506123334 6 90 0.0 0.0 0.00 0.00 0.00 77 1012.5
20260506122831 6 90 0.0 0.0 0.00 0.00 0.00 75 1012.4
20260506122328 6 90 0.0 0.0 0.00 0.00 0.00 76 1012.6
20260506121826 6 90 0.0 0.0 0.00 0.00 0.00 77 1012.5
20260506121323 5 90 0.0 0.0 0.00 0.00 0.00 79 1012.3
20260506120820 5 91 0.0 0.0 0.00 0.00 0.00 81 1012.3
20260506120318 5 91 0.0 0.0 0.00 0.00 0.00 82 1012.3
20260506115815 5 91 0.0 0.0 0.00 0.00 0.00 84 1012.2
20260506115313 5 91 0.0 0.0 0.00 0.00 0.00 84 1011.9
20260506114810 4 91 0.0 0.0 0.00 0.00 0.00 85 1012.2
20260506114308 3 91 0.0 0.0 0.00 0.00 0.00 87 1011.9
20260506113806 3 90 0.0 0.0 0.00 0.00 0.00 88 1012.1
20260506113304 3 88 0.0 0.0 0.00 0.00 0.00 89 1011.8
20260506112800 3 87 0.0 0.0 0.00 0.00 0.00 89 1011.8
20260506112257 2 87 0.0 0.0 0.00 0.00 0.00 89 1011.9
20260506111755 2 87 0.0 0.0 0.00 0.00 0.00 89 1012.2
20260506111253 2 87 0.0 0.0 0.00 0.00 0.00 89 1011.7
20260506110750 2 87 0.0 0.0 0.00 0.00 0.00 88 1011.7
20260506110247 2 86 0.0 0.0 0.00 0.00 0.00 88 1012.1
20260506105743 2 87 0.0 0.0 0.00 0.00 0.00 87 1011.9
20260506105240 2 87 0.0 0.0 0.00 0.00 0.00 87 1011.8
20260506104738 2 86 0.0 0.0 0.00 0.00 0.00 87 1011.8
20260506104236 2 84 0.0 0.0 0.00 0.00 0.00 87 1011.6
20260506103732 2 85 0.0 0.0 0.00 0.00 0.00 87 1011.7
20260506103230 2 85 0.0 0.0 0.00 0.00 0.00 86 1011.3
20260506102728 3 85 0.0 0.0 0.00 0.00 0.00 86 1011.2
20260506102225 3 84 0.0 0.0 0.00 0.00 0.00 86 1011.0
20260506101722 3 84 0.0 0.0 0.00 0.00 0.00 85 1011.0
20260506101219 3 84 0.0 0.0 0.00 0.00 0.00 84 1010.9
20260506100717 3 84 0.0 0.0 0.00 0.00 0.00 83 1011.0